Location: Nairn
(57.5833°N, 3.8667°W)
Time: 16:09:24
(UTC+00:00)

Tiros 1 - Pass Details

Date: 02 December 2020
Orbit: 630 x 663 km, 48.4° (Epoch: 21 January)

Event Time Altitude Azimuth Distance (km) Brightness Sun altitude
Rises 14:45:59 0° 213° (SSW) 2,989 13.6 3.6°
Reaches altitude 10° 14:49:02 10° 193° (SSW) 2,078 11.2 3.3°
Maximum altitude 14:52:05 17° 154° (SSE) 1,664 9.7 3.1°
Drops below altitude 10° 14:55:07 10° 114° (ESE) 2,078 9.6 2.8°
Sets 14:58:11 0° 94° (E) 2,988 10.2 2.5°
